Location: Akho
(42.3047°N, 44.1844°E)
Time: 08:05:05
(UTC+00:00)

STARLINK-1375 - Pass Details

Date: 07 June 2020
Orbit: 548 x 551 km, 53.0° (Epoch: 06 July)

Event Time Altitude Azimuth Distance (km) Brightness Sun altitude
Rises 00:47:20 0° 308° (NW) 2,713 7.0 -6.8°
Reaches altitude 10° 00:49:35 10° 311° (NW) 1,817 6.2 -6.4°
Maximum altitude 00:53:41 66° 34° (NE) 599 4.1 -5.9°
Drops below altitude 10° 00:57:46 10° 117° (ESE) 1,806 6.6 -5.3°
Sets 01:00:00 0° 120° (ESE) 2,696 7.5 -4.9°
